Weather History for KLEX - November, 2013

Change the Weather History Date:

Wednesday, November 13, 2013

  Actual Average Record
Temperature  
Mean Temperature 31 °F 48 °F  
Max Temperature 41 °F 57 °F 78 °F (1955)
Min Temperature 20 °F 38 °F 13 °F (1911)
Degree Days  
Heating Degree Days 34 18  
Month to date heating degree days 224 200  
Since 1 July heating degree days 509 526  
Cooling Degree Days 0 0  
Month to date cooling degree days 0 0  
Year to date cooling degree days 1245 1188  
Moisture  
Dew Point 19 °F    
Average Humidity 68    
Maximum Humidity 92    
Minimum Humidity 44    
Precipitation  
Precipitation 0.00 in 0.11 in 1.59 in (1889)
Month to date precipitation 0.84 1.42  
Year to date precipitation 52.34 39.13  
Snow  
Snow 0.00 in 0.00 in 0.70 in (1995)
Month to date snowfall 0.4 0.0  
Since 1 July snowfall 0.4 0.0  
Since 1 September snowfall 0.4 0.0  
Snow Depth 0.00 in    
Sea Level Pressure  
Sea Level Pressure 30.59 in    
Wind  
Wind Speed 4 mph (SSW)    
Max Wind Speed 12 mph    
Max Gust Speed 16 mph    
Visibility 10 miles    
Events      
T = Trace of Precipitation, MM = Missing Value Source: NWS Daily Summary

Daily Weather History Graph

Daily Weather History Graph

Search for Another Location

Airport or City:

Trip Planner

Search our weather history database for the weather conditions in past years. The results will help you decide how hot, cold, wet, or windy it might be!

Date:

Astronomy

Nov. 13, 2013 Rise Set
Actual Time 7:17 AM EST 5:27 PM EST
Civil Twilight 6:49 AM EST 5:55 PM EST
Nautical Twilight 6:17 AM EST 6:27 PM EST
Astronomical Twilight 5:46 AM EST 6:58 PM EST
Moon 3:11 PM EST (11/13) 3:13 AM EST (11/13)
Length of Visible Light 11h 06m
Length of Day
10h 10m
Waxing Gibbous, 84% of the Moon is Illuminated
Nov 13
Waxing Gibbous
Nov 17
Full
Nov 25
Last Quarter
Dec 2
New
Dec 9
First Quarter

Hourly Weather History & Observations

Time (EST) Temp. Windchill Dew Point Humidity Pressure Visibility Wind Dir Wind Speed Gust Speed Precip Events Conditions
12:54 AM 25.0 °F 18.1 °F 19.0 °F 78% 30.63 in 10.0 mi North 5.8 mph - N/A   Partly Cloudy
1:54 AM 26.1 °F - 19.0 °F 75% 30.62 in 10.0 mi Calm Calm - N/A   Clear
2:54 AM 25.0 °F - 19.0 °F 78% 30.62 in 10.0 mi Calm Calm - N/A   Clear
3:54 AM 24.1 °F 19.7 °F 18.0 °F 77% 30.63 in 10.0 mi North 3.5 mph - N/A   Clear
4:54 AM 23.0 °F - 19.0 °F 85% 30.64 in 10.0 mi Calm Calm - N/A   Clear
5:54 AM 21.0 °F - 17.1 °F 85% 30.66 in 10.0 mi Calm Calm - N/A   Clear
6:54 AM 19.9 °F - 16.0 °F 85% 30.67 in 10.0 mi Calm Calm - N/A   Clear
7:54 AM 21.9 °F - 19.0 °F 89% 30.67 in 8.0 mi Calm Calm - N/A   Clear
8:54 AM 27.0 °F - 23.0 °F 85% 30.69 in 10.0 mi Calm Calm - N/A   Clear
9:54 AM 30.9 °F - 24.1 °F 76% 30.68 in 10.0 mi Calm Calm - N/A   Clear
10:54 AM 33.1 °F 27.7 °F 24.1 °F 70% 30.68 in 10.0 mi SW 5.8 mph - N/A   Clear
11:54 AM 35.1 °F 31.0 °F 21.9 °F 59% 30.66 in 10.0 mi Variable 4.6 mph - N/A   Clear
12:54 PM 37.0 °F 32.4 °F 19.9 °F 50% 30.63 in 10.0 mi SW 5.8 mph - N/A   Clear
1:54 PM 39.0 °F 33.4 °F 19.0 °F 45% 30.60 in 10.0 mi SW 8.1 mph - N/A   Clear
2:54 PM 39.9 °F 33.9 °F 19.0 °F 43% 30.57 in 10.0 mi SW 9.2 mph - N/A   Clear
3:54 PM 39.9 °F 33.9 °F 19.0 °F 43% 30.56 in 10.0 mi SW 9.2 mph - N/A   Clear
4:54 PM 37.9 °F 32.7 °F 19.0 °F 47% 30.54 in 10.0 mi SSW 6.9 mph - N/A   Clear
5:54 PM 37.0 °F 33.3 °F 19.0 °F 48% 30.53 in 10.0 mi South 4.6 mph - N/A   Clear
6:54 PM 34.0 °F 28.0 °F 19.0 °F 54% 30.52 in 10.0 mi South 6.9 mph - N/A   Clear
7:54 PM 33.1 °F 27.7 °F 19.0 °F 56% 30.51 in 10.0 mi South 5.8 mph - N/A   Clear
8:54 PM 32.0 °F 26.4 °F 19.9 °F 61% 30.49 in 10.0 mi South 5.8 mph - N/A   Clear
9:54 PM 30.9 °F 25.2 °F 19.0 °F 61% 30.48 in 10.0 mi South 5.8 mph - N/A   Clear
10:54 PM 30.9 °F 25.2 °F 19.0 °F 61% 30.46 in 10.0 mi South 5.8 mph - N/A   Clear
11:54 PM 30.0 °F 23.2 °F 19.9 °F 66% 30.44 in 10.0 mi South 6.9 mph - N/A   Clear